Terminal Aerodrome Forecast
Issued by NWS

Home | Current Version | Previous Version | Text Only | Print | Product List | Glossary On
Versions: 1 2 3 4 5 6 7 8 9 10 11 12 13 14 15 16 17 18 19 20 21 22 23 24 25 26 27 28 29 30 31 32 33 34 35 36 37 38 39 40 41 42
000
FTUS43 KGLD 172338
TAFMCK
TAF
KMCK 172338Z 1800/1824 08011KT P6SM SKC
     FM180900 10007KT 3SM BR BKN006
      TEMPO 1810/1812 1/2SM FG OVC001
     FM181200 11005KT 1/2SM FG OVC001
     FM181500 12008KT 3SM BR BKN002
     FM181600 15008KT P6SM SCT002=

USA.gov is the U.S. government's official web portal to all federal, state and local government web resources and services.